Year,Month,Day,Hour,Minute,Value (Times are PST for windgust in km/hr)
2022,02,09,00,39,1.60
2022,02,09,00,40,3.20
2022,02,09,00,41,1.60
2022,02,09,00,45,1.60
2022,02,09,00,46,1.60
2022,02,09,01,12,3.20
2022,02,09,01,13,3.20
2022,02,09,01,18,1.60
2022,02,09,01,19,1.60
2022,02,09,01,20,1.60
2022,02,09,01,44,3.20
2022,02,09,01,45,3.20
2022,02,09,01,46,3.20
2022,02,09,01,54,3.20
2022,02,09,01,55,3.20
2022,02,09,01,56,3.20
2022,02,09,01,57,1.60
2022,02,09,01,58,1.60
2022,02,09,02,09,3.20
2022,02,09,02,10,1.60
2022,02,09,02,50,1.60
2022,02,09,02,51,3.20
2022,02,09,02,52,1.60
2022,02,09,03,39,3.20
2022,02,09,03,40,3.20
2022,02,09,03,41,1.60
2022,02,09,03,42,1.60
2022,02,09,04,02,3.20
2022,02,09,04,03,1.60
2022,02,09,04,04,1.60
2022,02,09,04,05,1.60
2022,02,09,04,26,1.60
2022,02,09,04,27,3.20
2022,02,09,04,28,3.20
2022,02,09,04,29,3.20
2022,02,09,04,30,1.60
2022,02,09,04,49,3.20
2022,02,09,04,50,1.60
2022,02,09,04,52,1.60
2022,02,09,04,53,1.60
2022,02,09,04,56,1.60
2022,02,09,04,57,3.20
2022,02,09,05,00,3.20
2022,02,09,05,01,1.60
2022,02,09,05,02,1.60
2022,02,09,05,03,1.60
2022,02,09,05,16,3.20
2022,02,09,05,17,1.60
2022,02,09,05,19,3.20
2022,02,09,05,20,3.20
2022,02,09,05,21,1.60
2022,02,09,05,22,1.60
2022,02,09,05,30,3.20
2022,02,09,05,31,1.60
2022,02,09,05,38,1.60
2022,02,09,05,39,1.60
2022,02,09,05,40,3.20
2022,02,09,05,41,3.20
2022,02,09,05,42,1.60
2022,02,09,05,43,1.60
2022,02,09,05,44,3.20
2022,02,09,05,45,3.20
2022,02,09,05,46,4.80
2022,02,09,05,47,3.20
2022,02,09,05,48,3.20
2022,02,09,05,50,3.20
2022,02,09,05,51,3.20
2022,02,09,05,52,1.60
2022,02,09,05,54,1.60
2022,02,09,05,55,1.60
2022,02,09,05,57,3.20
2022,02,09,05,58,3.20
2022,02,09,05,59,3.20
2022,02,09,06,00,3.20
2022,02,09,06,01,3.20
2022,02,09,06,02,1.60
2022,02,09,06,03,3.20
2022,02,09,06,04,3.20
2022,02,09,06,06,3.20
2022,02,09,06,07,1.60
2022,02,09,06,08,3.20
2022,02,09,06,09,3.20
2022,02,09,06,10,3.20
2022,02,09,06,11,3.20
2022,02,09,06,12,3.20
2022,02,09,06,13,4.80
2022,02,09,06,14,4.80
2022,02,09,06,15,1.60
2022,02,09,06,16,3.20
2022,02,09,06,17,4.80
2022,02,09,06,18,4.80
2022,02,09,06,19,3.20
2022,02,09,06,20,3.20
2022,02,09,06,21,3.20
2022,02,09,06,22,3.20
2022,02,09,06,23,1.60
2022,02,09,06,24,4.80
2022,02,09,06,25,3.20
2022,02,09,06,26,4.80
2022,02,09,06,27,3.20
2022,02,09,06,28,4.80
2022,02,09,06,29,3.20
2022,02,09,06,30,3.20
2022,02,09,06,31,3.20
2022,02,09,06,32,3.20
2022,02,09,06,33,3.20
2022,02,09,06,34,4.80
2022,02,09,06,35,4.80
2022,02,09,06,36,3.20
2022,02,09,06,37,3.20
2022,02,09,06,38,3.20
2022,02,09,06,39,4.80
2022,02,09,06,40,4.80
2022,02,09,06,41,4.80
2022,02,09,06,42,3.20
2022,02,09,06,43,3.20
2022,02,09,06,44,3.20
2022,02,09,06,45,4.80
2022,02,09,06,46,3.20
2022,02,09,06,47,4.80
2022,02,09,06,48,3.20
2022,02,09,06,49,3.20
2022,02,09,06,50,3.20
2022,02,09,06,51,3.20
2022,02,09,06,52,4.80
2022,02,09,06,53,4.80
2022,02,09,06,54,3.20
2022,02,09,06,55,4.80
2022,02,09,06,56,3.20
2022,02,09,06,57,3.20
2022,02,09,06,58,4.80
2022,02,09,06,59,3.20
2022,02,09,07,00,4.80
2022,02,09,07,01,4.80
2022,02,09,07,02,4.80
2022,02,09,07,03,3.20
2022,02,09,07,04,3.20
2022,02,09,07,05,4.80
2022,02,09,07,06,4.80
2022,02,09,07,07,4.80
2022,02,09,07,08,3.20
2022,02,09,07,09,4.80
2022,02,09,07,10,6.40
2022,02,09,07,11,8.10
2022,02,09,07,12,4.80
2022,02,09,07,13,3.20
2022,02,09,07,14,4.80
2022,02,09,07,15,3.20
2022,02,09,07,16,4.80
2022,02,09,07,17,6.40
2022,02,09,07,18,4.80
2022,02,09,07,19,4.80
2022,02,09,07,20,4.80
2022,02,09,07,21,3.20
2022,02,09,07,22,4.80
2022,02,09,07,23,6.40
2022,02,09,07,24,3.20
2022,02,09,07,25,3.20
2022,02,09,07,26,4.80
2022,02,09,07,27,1.60
2022,02,09,07,28,1.60
2022,02,09,07,29,3.20
2022,02,09,07,30,1.60
2022,02,09,07,31,1.60
2022,02,09,07,32,1.60
2022,02,09,07,33,4.80
2022,02,09,07,34,1.60
2022,02,09,07,35,1.60
2022,02,09,07,36,4.80
2022,02,09,07,37,4.80
2022,02,09,07,38,3.20
2022,02,09,07,39,4.80
2022,02,09,07,40,4.80
2022,02,09,07,41,3.20
2022,02,09,07,42,3.20
2022,02,09,07,43,3.20
2022,02,09,07,44,3.20
2022,02,09,07,45,1.60
2022,02,09,07,46,3.20
2022,02,09,07,47,4.80
2022,02,09,07,48,6.40
2022,02,09,07,49,6.40
2022,02,09,07,50,4.80
2022,02,09,07,51,4.80
2022,02,09,07,52,4.80
2022,02,09,07,53,3.20
2022,02,09,07,54,3.20
2022,02,09,07,55,4.80
2022,02,09,07,56,4.80
2022,02,09,07,57,3.20
2022,02,09,07,58,6.40
2022,02,09,07,59,4.80
2022,02,09,08,00,4.80
2022,02,09,08,01,4.80
2022,02,09,08,02,4.80
2022,02,09,08,03,6.40
2022,02,09,08,04,4.80
2022,02,09,08,05,4.80
2022,02,09,08,06,4.80
2022,02,09,08,07,6.40
2022,02,09,08,08,4.80
2022,02,09,08,09,6.40
2022,02,09,08,10,4.80
2022,02,09,08,11,6.40
2022,02,09,08,12,3.20
2022,02,09,08,13,3.20
2022,02,09,08,14,1.60
2022,02,09,08,15,3.20
2022,02,09,08,16,4.80
2022,02,09,08,17,6.40
2022,02,09,08,18,6.40
2022,02,09,08,19,4.80
2022,02,09,08,20,3.20
2022,02,09,08,21,3.20
2022,02,09,08,22,4.80
2022,02,09,08,23,1.60
2022,02,09,08,24,3.20
2022,02,09,08,25,3.20
2022,02,09,08,26,3.20
2022,02,09,08,28,3.20
2022,02,09,08,29,4.80
2022,02,09,08,30,3.20
2022,02,09,08,31,3.20
2022,02,09,08,32,4.80
2022,02,09,08,33,3.20
2022,02,09,08,34,3.20
2022,02,09,08,35,3.20
2022,02,09,08,36,3.20
2022,02,09,08,37,3.20
2022,02,09,08,38,3.20
2022,02,09,08,39,4.80
2022,02,09,08,40,4.80
2022,02,09,08,41,4.80
2022,02,09,08,42,4.80
2022,02,09,08,43,6.40
2022,02,09,08,44,4.80
2022,02,09,08,45,4.80
2022,02,09,08,46,3.20
2022,02,09,08,47,4.80
2022,02,09,08,48,4.80
2022,02,09,08,49,3.20
2022,02,09,08,50,6.40
2022,02,09,08,51,4.80
2022,02,09,08,52,3.20
2022,02,09,08,53,3.20
2022,02,09,08,54,3.20
2022,02,09,08,55,1.60
2022,02,09,08,56,3.20
2022,02,09,08,57,4.80
2022,02,09,08,58,1.60
2022,02,09,08,59,4.80
2022,02,09,09,00,3.20
2022,02,09,09,01,4.80
2022,02,09,09,02,4.80
2022,02,09,09,03,4.80
2022,02,09,09,04,4.80
2022,02,09,09,05,4.80
2022,02,09,09,06,4.80
2022,02,09,09,07,4.80
2022,02,09,09,08,6.40
2022,02,09,09,09,6.40
2022,02,09,09,10,8.10
2022,02,09,09,11,4.80
2022,02,09,09,12,3.20
2022,02,09,09,13,3.20
2022,02,09,09,15,3.20
2022,02,09,09,16,4.80
2022,02,09,09,17,4.80
2022,02,09,09,18,3.20
2022,02,09,09,19,3.20
2022,02,09,09,20,3.20
2022,02,09,09,21,3.20
2022,02,09,09,22,4.80
2022,02,09,09,23,6.40
2022,02,09,09,24,3.20
2022,02,09,09,25,6.40
2022,02,09,09,26,4.80
2022,02,09,09,27,6.40
2022,02,09,09,28,4.80
2022,02,09,09,29,4.80
2022,02,09,09,30,4.80
2022,02,09,09,31,4.80
2022,02,09,09,32,3.20
2022,02,09,09,33,3.20
2022,02,09,09,34,4.80
2022,02,09,09,35,3.20
2022,02,09,09,36,3.20
2022,02,09,09,37,3.20
2022,02,09,09,38,8.10
2022,02,09,09,39,6.40
2022,02,09,09,40,3.20
2022,02,09,09,41,3.20
2022,02,09,09,42,3.20
2022,02,09,09,43,3.20
2022,02,09,09,44,8.10
2022,02,09,09,45,4.80
2022,02,09,09,46,4.80
2022,02,09,09,47,4.80
2022,02,09,09,48,8.10
2022,02,09,09,49,6.40
2022,02,09,09,50,6.40
2022,02,09,09,51,8.10
2022,02,09,09,52,6.40
2022,02,09,09,53,4.80
2022,02,09,09,54,4.80
2022,02,09,09,55,4.80
2022,02,09,09,56,4.80
2022,02,09,09,57,4.80
2022,02,09,09,58,4.80
2022,02,09,09,59,6.40
2022,02,09,10,00,6.40
2022,02,09,10,01,6.40
2022,02,09,10,02,6.40
2022,02,09,10,03,6.40
2022,02,09,10,04,6.40
2022,02,09,10,05,8.10
2022,02,09,10,06,6.40
2022,02,09,10,07,6.40
2022,02,09,10,08,4.80
2022,02,09,10,09,6.40
2022,02,09,10,10,3.20
2022,02,09,10,11,4.80
2022,02,09,10,12,4.80
2022,02,09,10,13,1.60
2022,02,09,10,14,1.60
2022,02,09,10,15,3.20
2022,02,09,10,16,4.80
2022,02,09,10,17,3.20
2022,02,09,10,18,8.10
2022,02,09,10,19,3.20
2022,02,09,10,20,3.20
2022,02,09,10,21,3.20
2022,02,09,10,22,6.40
2022,02,09,10,23,3.20
2022,02,09,10,24,3.20
2022,02,09,10,25,4.80
2022,02,09,10,26,4.80
2022,02,09,10,27,4.80
2022,02,09,10,28,4.80
2022,02,09,10,29,4.80
2022,02,09,10,30,6.40
2022,02,09,10,31,4.80
2022,02,09,10,32,3.20
2022,02,09,10,33,4.80
2022,02,09,10,34,3.20
2022,02,09,10,35,4.80
2022,02,09,10,36,4.80
2022,02,09,10,37,4.80
2022,02,09,10,38,4.80
2022,02,09,10,39,4.80
2022,02,09,10,40,3.20
2022,02,09,10,41,3.20
2022,02,09,10,42,4.80
2022,02,09,10,43,6.40
2022,02,09,10,44,3.20
2022,02,09,10,45,3.20
2022,02,09,10,46,3.20
2022,02,09,10,47,3.20
2022,02,09,10,48,3.20
2022,02,09,10,49,3.20
2022,02,09,10,50,3.20
2022,02,09,10,51,1.60
2022,02,09,10,52,3.20
2022,02,09,10,53,4.80
2022,02,09,10,54,4.80
2022,02,09,10,55,6.40
2022,02,09,10,56,4.80
2022,02,09,10,57,4.80
2022,02,09,10,58,1.60
2022,02,09,10,59,4.80
2022,02,09,11,00,3.20
2022,02,09,11,01,4.80
2022,02,09,11,02,4.80
2022,02,09,11,03,3.20
2022,02,09,11,04,4.80
2022,02,09,11,05,4.80
2022,02,09,11,06,4.80
2022,02,09,11,07,4.80
2022,02,09,11,08,3.20
2022,02,09,11,09,4.80
2022,02,09,11,10,4.80
2022,02,09,11,11,4.80
2022,02,09,11,12,4.80
2022,02,09,11,13,6.40
2022,02,09,11,14,6.40
2022,02,09,11,15,4.80
2022,02,09,11,16,8.10
2022,02,09,11,17,3.20
2022,02,09,11,18,4.80
2022,02,09,11,19,6.40
2022,02,09,11,20,8.10
2022,02,09,11,21,6.40
2022,02,09,11,22,4.80
2022,02,09,11,23,6.40
2022,02,09,11,24,8.10
2022,02,09,11,25,6.40
2022,02,09,11,26,4.80
2022,02,09,11,27,6.40
2022,02,09,11,28,4.80
2022,02,09,11,29,4.80
2022,02,09,11,30,6.40
2022,02,09,11,31,4.80
2022,02,09,11,32,3.20
2022,02,09,11,33,4.80
2022,02,09,11,34,4.80
2022,02,09,11,35,8.10
2022,02,09,11,36,6.40
2022,02,09,11,37,8.10
2022,02,09,11,38,4.80
2022,02,09,11,39,3.20
2022,02,09,11,40,1.60
2022,02,09,11,41,4.80
2022,02,09,11,42,4.80
2022,02,09,11,43,6.40
2022,02,09,11,44,3.20
2022,02,09,11,45,3.20
2022,02,09,11,46,6.40
2022,02,09,11,47,6.40
2022,02,09,11,48,6.40
2022,02,09,11,49,6.40
2022,02,09,11,50,3.20
2022,02,09,11,51,4.80
2022,02,09,11,52,4.80
2022,02,09,11,53,6.40
2022,02,09,11,54,4.80
2022,02,09,11,55,3.20
2022,02,09,11,56,6.40
2022,02,09,11,57,8.10
2022,02,09,11,58,8.10
2022,02,09,11,59,4.80
2022,02,09,12,00,6.40
2022,02,09,12,01,1.60
2022,02,09,12,02,3.20
2022,02,09,12,03,3.20
2022,02,09,12,04,6.40
2022,02,09,12,05,8.10
2022,02,09,12,06,6.40
2022,02,09,12,07,4.80
2022,02,09,12,08,4.80
2022,02,09,12,09,4.80
2022,02,09,12,10,1.60
2022,02,09,12,11,6.40
2022,02,09,12,12,6.40
2022,02,09,12,13,4.80
2022,02,09,12,14,3.20
2022,02,09,12,15,4.80
2022,02,09,12,16,6.40
2022,02,09,12,17,6.40
2022,02,09,12,18,6.40
2022,02,09,12,19,4.80
2022,02,09,12,20,4.80
2022,02,09,12,21,6.40
2022,02,09,12,22,4.80
2022,02,09,12,23,4.80
2022,02,09,12,24,3.20
2022,02,09,12,25,4.80
2022,02,09,12,26,6.40
2022,02,09,12,27,4.80
2022,02,09,12,28,6.40
2022,02,09,12,29,8.10
2022,02,09,12,30,6.40
2022,02,09,12,31,6.40
2022,02,09,12,32,8.10
2022,02,09,12,33,4.80
2022,02,09,12,34,8.10
2022,02,09,12,35,6.40
2022,02,09,12,36,8.10
2022,02,09,12,37,8.10
2022,02,09,12,38,6.40
2022,02,09,12,39,8.10
2022,02,09,12,40,8.10
2022,02,09,12,41,6.40
2022,02,09,12,42,6.40
2022,02,09,12,43,6.40
2022,02,09,12,44,4.80
2022,02,09,12,45,6.40
2022,02,09,12,46,4.80
2022,02,09,12,47,3.20
2022,02,09,12,48,6.40
2022,02,09,12,49,4.80
2022,02,09,12,50,4.80
2022,02,09,12,51,4.80
2022,02,09,12,52,3.20
2022,02,09,12,53,4.80
2022,02,09,12,54,4.80
2022,02,09,12,55,4.80
2022,02,09,12,56,3.20
2022,02,09,12,57,3.20
2022,02,09,12,58,4.80
2022,02,09,12,59,6.40
2022,02,09,13,00,8.10
2022,02,09,13,01,6.40
2022,02,09,13,02,6.40
2022,02,09,13,03,6.40
2022,02,09,13,04,6.40
2022,02,09,13,05,6.40
2022,02,09,13,06,9.60
2022,02,09,13,07,6.40
2022,02,09,13,08,6.40
2022,02,09,13,09,8.10
2022,02,09,13,10,6.40
2022,02,09,13,11,8.10
2022,02,09,13,12,8.10
2022,02,09,13,13,8.10
2022,02,09,13,14,6.40
2022,02,09,13,15,6.40
2022,02,09,13,16,6.40
2022,02,09,13,17,8.10
2022,02,09,13,18,6.40
2022,02,09,13,19,8.10
2022,02,09,13,20,9.60
2022,02,09,13,21,8.10
2022,02,09,13,22,9.60
2022,02,09,13,23,8.10
2022,02,09,13,24,9.60
2022,02,09,13,25,9.60
2022,02,09,13,26,9.60
2022,02,09,13,27,9.60
2022,02,09,13,28,9.60
2022,02,09,13,29,9.60
2022,02,09,13,30,6.40
2022,02,09,13,31,6.40
2022,02,09,13,32,11.30
2022,02,09,13,33,12.90
2022,02,09,13,34,9.60
2022,02,09,13,35,6.40
2022,02,09,13,36,8.10
2022,02,09,13,37,14.50
2022,02,09,13,38,11.30
2022,02,09,13,39,17.70
2022,02,09,13,40,11.30
2022,02,09,13,41,8.10
2022,02,09,13,42,11.30
2022,02,09,13,43,9.60
2022,02,09,13,44,11.30
2022,02,09,13,45,11.30
2022,02,09,13,46,8.10
2022,02,09,13,47,14.50
2022,02,09,13,48,9.60
2022,02,09,13,49,16.10
2022,02,09,13,50,12.90
2022,02,09,13,51,12.90
2022,02,09,13,52,8.10
2022,02,09,13,53,9.60
2022,02,09,13,54,12.90
2022,02,09,13,55,11.30
2022,02,09,13,56,8.10
2022,02,09,13,57,6.40
2022,02,09,13,58,9.60
2022,02,09,13,59,6.40
2022,02,09,14,00,12.90
2022,02,09,14,01,8.10
2022,02,09,14,02,12.90
2022,02,09,14,03,8.10
2022,02,09,14,04,9.60
2022,02,09,14,05,12.90
2022,02,09,14,06,9.60
2022,02,09,14,07,11.30
2022,02,09,14,08,9.60
2022,02,09,14,09,6.40
2022,02,09,14,10,8.10
2022,02,09,14,11,8.10
2022,02,09,14,12,8.10
2022,02,09,14,13,6.40
2022,02,09,14,14,4.80
2022,02,09,14,15,4.80
2022,02,09,14,16,9.60
2022,02,09,14,17,11.30
2022,02,09,14,18,8.10
2022,02,09,14,19,12.90
2022,02,09,14,20,8.10
2022,02,09,14,21,8.10
2022,02,09,14,22,6.40
2022,02,09,14,23,8.10
2022,02,09,14,24,8.10
2022,02,09,14,25,4.80
2022,02,09,14,26,6.40
2022,02,09,14,27,4.80
2022,02,09,14,28,8.10
2022,02,09,14,29,6.40
2022,02,09,14,30,6.40
2022,02,09,14,31,8.10
2022,02,09,14,32,8.10
2022,02,09,14,33,6.40
2022,02,09,14,34,8.10
2022,02,09,14,35,4.80
2022,02,09,14,36,8.10
2022,02,09,14,37,4.80
2022,02,09,14,38,8.10
2022,02,09,14,39,11.30
2022,02,09,14,40,8.10
2022,02,09,14,41,8.10
2022,02,09,14,42,8.10
2022,02,09,14,43,11.30
2022,02,09,14,44,12.90
2022,02,09,14,45,12.90
2022,02,09,14,46,9.60
2022,02,09,14,47,11.30
2022,02,09,14,48,11.30
2022,02,09,14,49,9.60
2022,02,09,14,50,9.60
2022,02,09,14,51,8.10
2022,02,09,14,52,14.50
2022,02,09,14,53,9.60
2022,02,09,14,54,9.60
2022,02,09,14,55,8.10
2022,02,09,14,56,8.10
2022,02,09,14,57,6.40
2022,02,09,14,58,8.10
2022,02,09,14,59,9.60
2022,02,09,15,00,6.40
2022,02,09,15,01,4.80
2022,02,09,15,02,8.10
2022,02,09,15,03,6.40
2022,02,09,15,04,9.60
2022,02,09,15,05,11.30
2022,02,09,15,06,11.30
2022,02,09,15,07,9.60
2022,02,09,15,08,11.30
2022,02,09,15,09,12.90
2022,02,09,15,10,9.60
2022,02,09,15,11,12.90
2022,02,09,15,12,11.30
2022,02,09,15,13,12.90
2022,02,09,15,14,12.90
2022,02,09,15,15,11.30
2022,02,09,15,16,11.30
2022,02,09,15,17,12.90
2022,02,09,15,18,12.90
2022,02,09,15,19,12.90
2022,02,09,15,20,11.30
2022,02,09,15,21,11.30
2022,02,09,15,22,11.30
2022,02,09,15,23,11.30
2022,02,09,15,24,12.90
2022,02,09,15,25,11.30
2022,02,09,15,26,12.90
2022,02,09,15,27,12.90
2022,02,09,15,28,9.60
2022,02,09,15,29,9.60
2022,02,09,15,30,11.30
2022,02,09,15,31,9.60
2022,02,09,15,32,9.60
2022,02,09,15,33,11.30
2022,02,09,15,34,8.10
2022,02,09,15,35,8.10
2022,02,09,15,36,11.30
2022,02,09,15,37,8.10
2022,02,09,15,38,8.10
2022,02,09,15,39,8.10
2022,02,09,15,40,9.60
2022,02,09,15,41,12.90
2022,02,09,15,42,12.90
2022,02,09,15,43,9.60
2022,02,09,15,44,9.60
2022,02,09,15,45,14.50
2022,02,09,15,46,14.50
2022,02,09,15,47,12.90
2022,02,09,15,48,12.90
2022,02,09,15,49,9.60
2022,02,09,15,50,6.40
2022,02,09,15,51,11.30
2022,02,09,15,52,11.30
2022,02,09,15,53,11.30
2022,02,09,15,54,11.30
2022,02,09,15,55,6.40
2022,02,09,15,56,9.60
2022,02,09,15,57,9.60
2022,02,09,15,58,6.40
2022,02,09,15,59,9.60
2022,02,09,16,00,6.40
2022,02,09,16,01,8.10
2022,02,09,16,02,9.60
2022,02,09,16,03,8.10
2022,02,09,16,04,8.10
2022,02,09,16,05,8.10
2022,02,09,16,06,9.60
2022,02,09,16,07,8.10
2022,02,09,16,08,11.30
2022,02,09,16,09,9.60
2022,02,09,16,10,9.60
2022,02,09,16,11,8.10
2022,02,09,16,12,9.60
2022,02,09,16,13,11.30
2022,02,09,16,14,9.60
2022,02,09,16,15,9.60
2022,02,09,16,16,8.10
2022,02,09,16,17,9.60
2022,02,09,16,18,9.60
2022,02,09,16,19,8.10
2022,02,09,16,20,9.60
2022,02,09,16,21,9.60
2022,02,09,16,22,9.60
2022,02,09,16,23,9.60
2022,02,09,16,24,11.30
2022,02,09,16,25,11.30
2022,02,09,16,26,8.10
2022,02,09,16,27,9.60
2022,02,09,16,28,9.60
2022,02,09,16,29,4.80
2022,02,09,16,30,6.40
2022,02,09,16,31,11.30
2022,02,09,16,32,9.60
2022,02,09,16,33,12.90
2022,02,09,16,34,14.50
2022,02,09,16,35,11.30
2022,02,09,16,36,11.30
2022,02,09,16,37,11.30
2022,02,09,16,38,9.60
2022,02,09,16,39,11.30
2022,02,09,16,40,9.60
2022,02,09,16,41,12.90
2022,02,09,16,42,12.90
2022,02,09,16,43,11.30
2022,02,09,16,44,12.90
2022,02,09,16,45,9.60
2022,02,09,16,46,12.90
2022,02,09,16,47,6.40
2022,02,09,16,48,9.60
2022,02,09,16,49,12.90
2022,02,09,16,50,12.90
2022,02,09,16,51,11.30
2022,02,09,16,52,16.10
2022,02,09,16,53,14.50
2022,02,09,16,54,11.30
2022,02,09,16,55,16.10
2022,02,09,16,56,17.70
2022,02,09,16,57,11.30
2022,02,09,16,58,9.60
2022,02,09,16,59,9.60
2022,02,09,17,00,12.90
2022,02,09,17,01,12.90
2022,02,09,17,02,11.30
2022,02,09,17,03,9.60
2022,02,09,17,04,11.30
2022,02,09,17,05,14.50
2022,02,09,17,06,12.90
2022,02,09,17,07,11.30
2022,02,09,17,08,8.10
2022,02,09,17,09,11.30
2022,02,09,17,10,12.90
2022,02,09,17,11,12.90
2022,02,09,17,12,16.10
2022,02,09,17,13,14.50
2022,02,09,17,14,12.90
2022,02,09,17,15,14.50
2022,02,09,17,16,12.90
2022,02,09,17,17,12.90
2022,02,09,17,18,17.70
2022,02,09,17,19,12.90
2022,02,09,17,20,9.60
2022,02,09,17,21,12.90
2022,02,09,17,22,14.50
2022,02,09,17,23,16.10
2022,02,09,17,24,12.90
2022,02,09,17,25,12.90
2022,02,09,17,26,14.50
2022,02,09,17,27,12.90
2022,02,09,17,28,17.70
2022,02,09,17,29,14.50
2022,02,09,17,30,14.50
2022,02,09,17,31,16.10
2022,02,09,17,32,16.10
2022,02,09,17,33,17.70
2022,02,09,17,34,14.50
2022,02,09,17,35,14.50
2022,02,09,17,36,12.90
2022,02,09,17,37,12.90
2022,02,09,17,38,17.70
2022,02,09,17,39,16.10
2022,02,09,17,40,14.50
2022,02,09,17,41,14.50
2022,02,09,17,42,12.90
2022,02,09,17,43,16.10
2022,02,09,17,44,17.70
2022,02,09,17,45,9.60
2022,02,09,17,46,14.50
2022,02,09,17,47,14.50
2022,02,09,17,48,11.30
2022,02,09,17,49,8.10
2022,02,09,17,50,14.50
2022,02,09,17,51,9.60
2022,02,09,17,52,4.80
2022,02,09,17,53,9.60
2022,02,09,17,54,12.90
2022,02,09,17,55,16.10
2022,02,09,17,56,11.30
2022,02,09,17,57,12.90
2022,02,09,17,58,14.50
2022,02,09,17,59,14.50
2022,02,09,18,00,16.10
2022,02,09,18,01,11.30
2022,02,09,18,02,9.60
2022,02,09,18,03,11.30
2022,02,09,18,04,12.90
2022,02,09,18,05,11.30
2022,02,09,18,06,11.30
2022,02,09,18,07,16.10
2022,02,09,18,08,14.50
2022,02,09,18,09,17.70
2022,02,09,18,10,19.30
2022,02,09,18,11,12.90
2022,02,09,18,12,16.10
2022,02,09,18,13,12.90
2022,02,09,18,14,16.10
2022,02,09,18,15,12.90
2022,02,09,18,16,16.10
2022,02,09,18,17,9.60
2022,02,09,18,18,16.10
2022,02,09,18,19,16.10
2022,02,09,18,20,16.10
2022,02,09,18,21,14.50
2022,02,09,18,22,11.30
2022,02,09,18,23,12.90
2022,02,09,18,24,11.30
2022,02,09,18,25,11.30
2022,02,09,18,26,8.10
2022,02,09,18,27,12.90
2022,02,09,18,28,11.30
2022,02,09,18,29,8.10
2022,02,09,18,30,14.50
2022,02,09,18,31,14.50
2022,02,09,18,32,16.10
2022,02,09,18,33,14.50
2022,02,09,18,34,12.90
2022,02,09,18,35,14.50
2022,02,09,18,36,12.90
2022,02,09,18,37,11.30
2022,02,09,18,38,11.30
2022,02,09,18,39,17.70
2022,02,09,18,40,16.10
2022,02,09,18,41,14.50
2022,02,09,18,42,12.90
2022,02,09,18,43,14.50
2022,02,09,18,44,16.10
2022,02,09,18,45,14.50
2022,02,09,18,46,14.50
2022,02,09,18,47,11.30
2022,02,09,18,48,14.50
2022,02,09,18,49,9.60
2022,02,09,18,50,9.60
2022,02,09,18,51,14.50
2022,02,09,18,52,14.50
2022,02,09,18,53,12.90
2022,02,09,18,54,14.50
2022,02,09,18,55,9.60
2022,02,09,18,56,12.90
2022,02,09,18,57,12.90
2022,02,09,18,58,11.30
2022,02,09,18,59,12.90
2022,02,09,19,00,16.10
2022,02,09,19,01,12.90
2022,02,09,19,02,14.50
2022,02,09,19,03,19.30
2022,02,09,19,04,14.50
2022,02,09,19,05,12.90
2022,02,09,19,06,19.30
2022,02,09,19,07,14.50
2022,02,09,19,08,16.10
2022,02,09,19,09,17.70
2022,02,09,19,10,14.50
2022,02,09,19,11,14.50
2022,02,09,19,12,14.50
2022,02,09,19,13,12.90
2022,02,09,19,14,11.30
2022,02,09,19,15,9.60
2022,02,09,19,16,11.30
2022,02,09,19,17,11.30
2022,02,09,19,18,11.30
2022,02,09,19,19,11.30
2022,02,09,19,20,11.30
2022,02,09,19,21,11.30
2022,02,09,19,22,9.60
2022,02,09,19,23,16.10
2022,02,09,19,24,12.90
2022,02,09,19,25,11.30
2022,02,09,19,26,11.30
2022,02,09,19,27,6.40
2022,02,09,19,28,9.60
2022,02,09,19,29,8.10
2022,02,09,19,30,11.30
2022,02,09,19,31,11.30
2022,02,09,19,32,16.10
2022,02,09,19,33,17.70
2022,02,09,19,34,12.90
2022,02,09,19,35,12.90
2022,02,09,19,36,16.10
2022,02,09,19,37,14.50
2022,02,09,19,38,14.50
2022,02,09,19,39,16.10
2022,02,09,19,40,14.50
2022,02,09,19,41,12.90
2022,02,09,19,42,16.10
2022,02,09,19,43,16.10
2022,02,09,19,44,16.10
2022,02,09,19,45,14.50
2022,02,09,19,46,17.70
2022,02,09,19,47,16.10
2022,02,09,19,48,16.10
2022,02,09,19,49,16.10
2022,02,09,19,50,19.30
2022,02,09,19,51,14.50
2022,02,09,19,52,14.50
2022,02,09,19,53,14.50
2022,02,09,19,54,17.70
2022,02,09,19,55,20.90
2022,02,09,19,56,14.50
2022,02,09,19,57,16.10
2022,02,09,19,58,17.70
2022,02,09,19,59,17.70
2022,02,09,20,00,14.50
2022,02,09,20,01,20.90
2022,02,09,20,02,17.70
2022,02,09,20,03,19.30
2022,02,09,20,04,17.70
2022,02,09,20,05,16.10
2022,02,09,20,06,16.10
2022,02,09,20,07,20.90
2022,02,09,20,08,14.50
2022,02,09,20,09,17.70
2022,02,09,20,10,14.50
2022,02,09,20,11,16.10
2022,02,09,20,12,16.10
2022,02,09,20,13,16.10
2022,02,09,20,14,16.10
2022,02,09,20,15,16.10
2022,02,09,20,16,17.70
2022,02,09,20,17,16.10
2022,02,09,20,18,16.10
2022,02,09,20,19,17.70
2022,02,09,20,20,16.10
2022,02,09,20,21,17.70
2022,02,09,20,22,19.30
2022,02,09,20,23,19.30
2022,02,09,20,24,14.50
2022,02,09,20,25,17.70
2022,02,09,20,26,12.90
2022,02,09,20,27,14.50
2022,02,09,20,28,16.10
2022,02,09,20,29,16.10
2022,02,09,20,30,17.70
2022,02,09,20,31,19.30
2022,02,09,20,32,17.70
2022,02,09,20,33,22.50
2022,02,09,20,34,16.10
2022,02,09,20,35,17.70
2022,02,09,20,36,11.30
2022,02,09,20,37,14.50
2022,02,09,20,38,16.10
2022,02,09,20,39,19.30
2022,02,09,20,40,12.90
2022,02,09,20,41,11.30
2022,02,09,20,42,11.30
2022,02,09,20,43,22.50
2022,02,09,20,44,14.50
2022,02,09,20,45,16.10
2022,02,09,20,46,16.10
2022,02,09,20,47,12.90
2022,02,09,20,48,16.10
2022,02,09,20,49,12.90
2022,02,09,20,50,14.50
2022,02,09,20,51,16.10
2022,02,09,20,52,17.70
2022,02,09,20,53,14.50
2022,02,09,20,54,20.90
2022,02,09,20,55,14.50
2022,02,09,20,56,19.30
2022,02,09,20,57,22.50
2022,02,09,20,58,19.30
2022,02,09,20,59,17.70
2022,02,09,21,00,22.50
2022,02,09,21,01,14.50
2022,02,09,21,02,20.90
2022,02,09,21,03,19.30
2022,02,09,21,04,20.90
2022,02,09,21,05,19.30
2022,02,09,21,06,22.50
2022,02,09,21,07,19.30
2022,02,09,21,08,22.50
2022,02,09,21,09,24.20
2022,02,09,21,10,20.90
2022,02,09,21,11,16.10
2022,02,09,21,12,20.90
2022,02,09,21,13,20.90
2022,02,09,21,14,22.50
2022,02,09,21,15,22.50
2022,02,09,21,16,24.20
2022,02,09,21,17,17.70
2022,02,09,21,18,19.30
2022,02,09,21,19,19.30
2022,02,09,21,20,19.30
2022,02,09,21,21,19.30
2022,02,09,21,22,17.70
2022,02,09,21,23,16.10
2022,02,09,21,24,16.10
2022,02,09,21,25,20.90
2022,02,09,21,26,20.90
2022,02,09,21,27,17.70
2022,02,09,21,28,17.70
2022,02,09,21,29,17.70
2022,02,09,21,30,17.70
2022,02,09,21,31,17.70
2022,02,09,21,32,17.70
2022,02,09,21,33,16.10
2022,02,09,21,34,14.50
2022,02,09,21,35,14.50
2022,02,09,21,36,16.10
2022,02,09,21,37,14.50
2022,02,09,21,38,12.90
2022,02,09,21,39,12.90
2022,02,09,21,40,14.50
2022,02,09,21,41,12.90
2022,02,09,21,42,14.50
2022,02,09,21,43,19.30
2022,02,09,21,44,17.70
2022,02,09,21,45,19.30
2022,02,09,21,46,16.10
2022,02,09,21,47,20.90
2022,02,09,21,48,19.30
2022,02,09,21,49,19.30
2022,02,09,21,50,17.70
2022,02,09,21,51,22.50
2022,02,09,21,52,16.10
2022,02,09,21,53,16.10
2022,02,09,21,54,14.50
2022,02,09,21,55,16.10
2022,02,09,21,56,19.30
2022,02,09,21,57,24.20
2022,02,09,21,58,20.90
2022,02,09,21,59,20.90
2022,02,09,22,00,17.70
2022,02,09,22,01,14.50
2022,02,09,22,02,19.30
2022,02,09,22,03,24.20
2022,02,09,22,04,14.50
2022,02,09,22,05,16.10
2022,02,09,22,06,20.90
2022,02,09,22,07,25.70
2022,02,09,22,08,17.70
2022,02,09,22,09,22.50
2022,02,09,22,10,20.90
2022,02,09,22,11,20.90
2022,02,09,22,12,22.50
2022,02,09,22,13,24.20
2022,02,09,22,14,22.50
2022,02,09,22,15,22.50
2022,02,09,22,16,19.30
2022,02,09,22,17,32.20
2022,02,09,22,18,25.70
2022,02,09,22,19,16.10
2022,02,09,22,20,17.70
2022,02,09,22,21,22.50
2022,02,09,22,22,19.30
2022,02,09,22,23,20.90
2022,02,09,22,24,25.70
2022,02,09,22,25,22.50
2022,02,09,22,26,20.90
2022,02,09,22,27,24.20
2022,02,09,22,28,19.30
2022,02,09,22,29,25.70
2022,02,09,22,30,25.70
2022,02,09,22,31,17.70
2022,02,09,22,32,20.90
2022,02,09,22,33,16.10
2022,02,09,22,34,24.20
2022,02,09,22,35,20.90
2022,02,09,22,36,22.50
2022,02,09,22,37,24.20
2022,02,09,22,38,25.70